FW7134 Weather Reports


Display with metric or nautical units.
time (UTC)temp
F
wind
direction
speed
MPH
gust
MPH
rain 1hr
in
rain 24hr
in
rain mn
in
humidity
%
barometer
mb
20260508063017 45 288 0.0 0.0 0.00 0.87 0.01 100 1001.5
20260508061518 46 288 0.0 0.0 0.00 0.87 0.01 100 1001.7
20260508060011 46 288 0.0 0.0 0.01 0.87 0.01 100 1001.3
20260508054516 47 288 0.0 2.0 0.01 0.87 0.01 100 1001.4
20260508053009 47 288 0.0 2.0 0.01 0.87 0.01 100 1001.4
20260508051507 48 288 1.0 5.0 0.01 0.87 0.01 100 1001.4
20260508050010 48 288 2.0 7.0 0.00 0.86 0.00 100 1001.5
20260508044503 47 68 1.0 3.0 0.00 0.86 0.00 100 1001.5
20260508043001 47 68 0.0 0.0 0.00 0.86 0.00 100 1001.4
20260508041604 46 68 0.0 0.0 0.00 0.86 0.00 100 1001.5
20260508034557 46 68 0.0 1.0 0.00 0.86 0.00 100 1001.9
20260508033055 47 67 2.0 4.0 0.00 0.86 0.00 100 1001.8
20260508031553 47 67 0.0 2.0 0.00 0.86 0.00 100 1001.9
20260508030054 47 67 0.0 3.0 0.00 0.86 0.00 100 1002.0
20260508024547 48 67 3.0 9.0 0.00 0.86 0.86 100 1001.9
20260508023047 48 273 1.0 4.0 0.00 0.86 0.86 100 1002.0
20260508021544 48 273 0.0 1.0 0.00 0.86 0.86 100 1001.8
20260508020042 49 273 0.0 2.0 0.00 0.86 0.86 100 1002.0
20260508014541 50 273 0.0 3.0 0.00 0.86 0.86 100 1002.3
20260508013041 50 273 0.0 0.0 0.00 0.86 0.86 100 1002.0
20260508011540 50 273 0.0 0.0 0.00 0.86 0.86 100 1002.1
20260508010039 50 273 0.0 0.0 0.00 0.86 0.86 100 1001.7
20260508004547 51 273 0.0 2.0 0.00 0.86 0.86 100 1001.5
20260508003046 50 274 0.0 1.0 0.00 0.86 0.86 100 1001.6
20260508001538 51 274 0.0 3.0 0.00 0.86 0.86 100 1001.7
20260508000038 51 274 0.0 2.0 0.00 0.86 0.86 100 1001.7
20260507234547 51 274 2.0 6.0 0.00 0.86 0.86 100 1001.6
20260507233039 51 275 1.0 4.0 0.00 0.86 0.86 100 1001.6
20260507231535 51 275 2.0 7.0 0.01 0.86 0.86 100 1001.5
20260507230035 51 273 2.0 7.0 0.01 0.86 0.86 100 1001.3
20260507224535 51 269 2.0 8.0 0.02 0.86 0.86 100 1001.3
20260507223041 52 266 4.0 8.0 0.01 0.85 0.85 100 1001.5
20260507221536 52 265 4.0 9.0 0.01 0.85 0.85 100 1001.5
20260507220039 53 283 3.0 9.0 0.01 0.85 0.85 100 1001.4
20260507214532 55 240 7.0 11.0 0.00 0.84 0.84 100 1001.4
20260507213032 56 198 3.0 9.0 0.00 0.84 0.84 100 1001.3
20260507211536 56 187 4.0 8.0 0.00 0.84 0.84 100 1001.2
20260507210031 56 184 5.0 8.0 0.00 0.84 0.84 100 1001.3
20260507204531 56 204 4.0 8.0 0.00 0.84 0.84 100 1001.0
20260507203028 55 180 5.0 10.0 0.01 0.84 0.84 100 1000.9
20260507201528 55 193 3.0 8.0 0.01 0.84 0.84 100 1000.7
20260507200027 54 200 5.0 8.0 0.03 0.84 0.84 100 1001.1
20260507194535 52 161 3.0 8.0 0.08 0.84 0.84 100 1000.8
20260507193028 51 161 2.0 10.0 0.11 0.83 0.83 100 1000.4
20260507191525 51 153 5.0 13.0 0.14 0.83 0.83 100 1000.2
20260507190036 54 143 6.0 11.0 0.15 0.81 0.81 100 1001.2
20260507184526 55 186 5.0 12.0 0.17 0.76 0.76 100 1001.8
20260507183018 55 183 7.0 10.0 0.21 0.72 0.72 100 1002.6
20260507181515 56 183 5.0 10.0 0.28 0.68 0.68 100 1002.5
20260507180018 56 178 6.0 10.0 0.37 0.66 0.66 100 1002.9
20260507174514 56 182 6.0 11.0 0.42 0.59 0.59 100 1002.9
20260507173033 56 196 9.0 13.0 0.48 0.50 0.50 100 1003.2
20260507171511 56 205 11.0 18.0 0.37 0.38 0.38 100 1003.8
20260507170018 56 210 10.0 21.0 0.28 0.28 0.28 100 1003.4
20260507164520 57 202 13.0 22.0 0.16 0.16 0.16 100 1003.6
20260507163009 57 216 14.0 24.0 0.02 0.02 0.02 100 1003.3
20260507161508 57 192 14.0 27.0 0.01 0.01 0.01 100 1003.1
20260507160006 58 184 15.0 26.0 0.00 0.00 0.00 100 1003.3
20260507154505 59 159 13.0 29.0 0.00 0.00 0.00 100 1003.8
20260507153003 59 149 13.0 31.0 0.00 0.00 0.00 100 1004.2
20260507151601 59 174 10.0 25.0 0.00 0.00 0.00 100 1004.6
20260507150101 59 193 10.0 28.0 0.00 0.00 0.00 100 1004.5
20260507150001 59 190 11.0 28.0 0.00 0.00 0.00 100 1004.6
20260507144601 58 180 12.0 24.0 0.00 0.00 0.00 100 1005.1
20260507143114 57 165 15.0 27.0 0.00 0.00 0.00 100 1005.7
20260507141601 57 167 12.0 23.0 0.00 0.00 0.00 100 1005.8
20260507140054 59 172 17.0 34.0 0.00 0.00 0.00 100 1005.6
20260507134553 59 200 19.0 44.0 0.00 0.00 0.00 100 1005.9
20260507133053 60 161 14.0 35.0 0.00 0.00 0.00 100 1006.2
20260507131555 60 146 11.0 29.0 0.00 0.00 0.00 100 1006.2
20260507130053 59 180 17.0 27.0 0.00 0.00 0.00 100 1006.3
20260507124556 59 171 15.0 27.0 0.00 0.00 0.00 100 1006.5
20260507123044 59 163 12.0 34.0 0.00 0.00 0.00 100 1006.7
20260507121543 59 225 16.0 33.0 0.00 0.00 0.00 100 1006.7
20260507120040 59 178 20.0 34.0 0.00 0.00 0.00 100 1006.6
20260507114555 59 202 15.0 28.0 0.00 0.00 0.00 100 1006.5
20260507113058 59 190 16.0 30.0 0.00 0.00 0.00 100 1006.4
20260507111537 57 178 16.0 30.0 0.00 0.00 0.00 100 1006.6
20260507110027 57 186 16.0 27.0 0.00 0.00 0.00 100 1007.0
20260507104529 56 163 13.0 25.0 0.00 0.00 0.00 100 1006.9
20260507103022 56 182 11.0 28.0 0.00 0.00 0.00 100 1007.2
20260507101519 56 188 14.0 23.0 0.00 0.00 0.00 100 1007.3
20260507100014 55 192 16.0 28.0 0.00 0.00 0.00 100 1007.5
20260507094511 55 178 11.0 21.0 0.00 0.00 0.00 100 1007.8
20260507093009 55 182 8.0 25.0 0.00 0.00 0.00 100 1008.1
20260507091508 52 171 7.0 12.0 0.00 0.00 0.00 100 1008.5
20260507090007 49 162 3.0 11.0 0.00 0.00 0.00 100 1008.8
20260507084507 52 157 5.0 12.0 0.00 0.00 0.00 100 1008.5
20260507083003 54 182 8.0 18.0 0.00 0.00 0.00 100 1009.0
20260507081605 53 169 9.0 16.0 0.00 0.00 0.00 100 1009.7
20260507080059 53 175 5.0 10.0 0.00 0.00 0.00 100 1009.7
20260507074600 53 186 8.0 11.0 0.00 0.00 0.00 100 1010.0
20260507073101 52 188 6.0 10.0 0.00 0.00 0.00 100 1010.2
20260507071555 52 166 8.0 13.0 0.00 0.00 0.00 100 1010.0
20260507070057 52 173 8.0 21.0 0.00 0.00 0.00 100 1010.0
20260507064553 52 212 11.0 18.0 0.00 0.00 0.00 100 1010.9